Regional Weather Roundup
Issued by NWS Northern Indiana

Home | Current Version | Previous Version | Graphics & Text | Print | Product List | Glossary On
Versions: 1 2 3 4 5 6 7 8 9 10 11 12 13 14 15 16 17 18 19 20 21 22 23 24 25 26 27 28 29 30 31 32 33 34 35 36 37 38 39 40 41 42 43 44 45 46 47 48 49 50
000
ASUS43 KIWX 250800
RWRIWX

KIWX WEATHER ROUNDUP
NATIONAL WEATHER SERVICE NORTHERN INDIANA
400 AM EDT TUE JUL 25 2017

NOTE: "FAIR" INDICATES FEW OR NO CLOUDS BELOW 12,000 FEET WITH NO
SIGNIFICANT WEATHER AND/OR OBSTRUCTIONS TO VISIBILITY.

* THESE STATIONS ARE NOT UNDER NWS QUALITY CONTROL. THEY ALSO MAY NOT
  REPORT WEATHER SUCH AS PRECIPITATION OR FOG.

INZ001>027-250900-
NORTHERN INDIANA

CITY           SKY/WX    TMP DP  RH WIND       PRES   REMARKS
VALPARAISO     CLEAR     61  59  94 E3        30.14S FOG
SOUTH BEND     CLEAR     59  58  96 CALM      30.15F
GOSHEN         CLEAR     56  53  90 CALM      30.16R FOG
MONTICELLO*    CLEAR     60  58  95 CALM      30.14R
FORT WAYNE     CLEAR     58  56  93 CALM      30.16R
PERU/GRISSOM   CLEAR     61  59  93 E3        30.13S

$$
INZ028>050-250900-
CENTRAL INDIANA

CITY           SKY/WX    TMP DP  RH WIND       PRES   REMARKS
LAFAYETTE      CLEAR     62  59  90 E7        30.13R
KOKOMO*        CLEAR     59  57  93 E6        30.15R
MUNCIE*        CLEAR     59  56  89 CALM      30.14S
INDIANAPOLIS   CLEAR     65  57  75 E7        30.12R

$$
MIZ043>046-050>051-056>058-064>065-071>073-077>080-250900-
SOUTHWEST LOWER MICHIGAN

CITY           SKY/WX    TMP DP  RH WIND       PRES   REMARKS
BATTLE CREEK   CLEAR     57  55  93 CALM      30.17R
BENTON HARBOR  CLEAR     57  55  93 CALM      30.14R FOG
COLDWATER*     CLEAR     56  56 100 CALM      30.16S
HILLSDALE*     CLEAR     52  52 100 CALM      30.16S
HOLLAND        CLEAR     56  55  97 CALM      30.15R FOG
GRAND RAPIDS   CLEAR     59  55  87 SE6       30.15S
KALAMAZOO      CLEAR     58  54  86 CALM      30.17R
STURGIS*       CLEAR     55  55 100 CALM      30.16R
THREE RIVERS*  FAIR      56  55  98 CALM      30.16R

$$
OHZ001>008-015>018-024>025-250900-
NORTHWEST OHIO

CITY           SKY/WX    TMP DP  RH WIND       PRES   REMARKS
DEFIANCE       CLEAR    N/A N/A N/A CALM      30.16R
FINDLAY        CLEAR     58  54  86 CALM      30.13S
TOLEDO EXPRESS CLEAR     56  53  90 CALM      30.14S
TOLEDO METCALF PTCLDY    59  54  83 NW5       30.15R
LIMA           CLEAR     54  54 100 CALM      30.15R

$$
AND FOR LAKE MICHIGAN COASTAL AND OPEN LAKE BUOY OBSERVATIONS

STATION/POSITION TEMP    WIND        PRES    VSBY  WAVE
                 AIR SEA DIR/SP/G                  HT/PER
                 (F)     (DEG/KT/KT) (MB)    (MI)  (FT/S)
CALUMET HARBOR    69      90/  6/ 10 1019.7S
MICHIGAN CITY     65      90/  7/  9   N/A
BURNS HARBOR      67     110/  9/ 11 1020.7S
SAINT JOSEPH      63      CALM  /  2 1021.0
SOUTH LAKE BUOY   69 71   40/  6/  8 1020.3          2/ 6
4 MI NW BRIDGMAN  65 72  150/  6/  8 1020.3F         2/ 5
MICHIGAN CITY     67 74  120/  8/ 10   N/A           3/ 6

$$
&&




USA.gov is the U.S. government's official web portal to all federal, state and local government web resources and services.